Weather History for KMGC - January, 2014

Change the Weather History Date:

Friday, January 31, 2014

  Actual Average (KVPZ) Record (KVPZ)
Temperature  
Mean Temperature 28 °F 24 °F  
Max Temperature 32 °F 32 °F 56 °F (2012)
Min Temperature 23 °F 17 °F -10 °F (2004)
Degree Days  
Heating Degree Days 38 41  
Month to date heating degree days 1286  
Since 1 July heating degree days 3685  
Cooling Degree Days 0 0  
Month to date cooling degree days 0  
Year to date cooling degree days 0  
Moisture  
Dew Point 19 °F    
Average Humidity 77    
Maximum Humidity 100    
Minimum Humidity 64    
Precipitation  
Precipitation 0.00 in 0.06 in 0.51 in (2002)
Month to date precipitation 1.75  
Year to date precipitation 1.75  
Sea Level Pressure  
Sea Level Pressure 30.08 in    
Wind  
Wind Speed 6 mph (NW)    
Max Wind Speed 12 mph    
Max Gust Speed 20 mph    
Visibility 8 miles    
Events Snow    
T = Trace of Precipitation, MM = Missing Value Source: NWS Daily Summary

Daily Weather History Graph

Daily Weather History Graph

Search for Another Location

Airport or City:

Trip Planner

Search our weather history database for the weather conditions in past years. The results will help you decide how hot, cold, wet, or windy it might be!

Date:

Astronomy

Jan. 31, 2014 Rise Set
Actual Time 7:00 AM CST 5:01 PM CST
Civil Twilight 6:30 AM CST 5:31 PM CST
Nautical Twilight 5:57 AM CST 6:04 PM CST
Astronomical Twilight 5:24 AM CST 6:37 PM CST
Moon 7:08 AM CST (1/31) 6:27 PM CST (1/31)
Length of Visible Light 11h 00m
Length of Day
10h 01m
New Moon, 1% of the Moon is Illuminated
Jan 31
New Moon
Feb 6
First Quarter
Feb 14
Full
Feb 22
Last Quarter
Mar 1
New

Hourly Weather History & Observations

Time (CST) Temp. Windchill Dew Point Humidity Pressure Visibility Wind Dir Wind Speed Gust Speed Precip Events Conditions
12:15 AM 32.0 °F 23.6 °F 24.8 °F 75% 29.89 in 10.0 mi West 10.4 mph 19.6 mph N/A   Overcast
12:35 AM 32.0 °F 24.8 °F 23.0 °F 69% 29.89 in 10.0 mi WSW 8.1 mph - N/A   Overcast
12:55 AM 32.0 °F 24.2 °F 23.0 °F 69% 29.90 in 10.0 mi WSW 9.2 mph - N/A   Overcast
1:15 AM 32.0 °F 24.2 °F 24.8 °F 75% 29.92 in 10.0 mi West 9.2 mph - N/A   Overcast
1:35 AM 32.0 °F 24.8 °F 26.6 °F 80% 29.92 in 10.0 mi West 8.1 mph - N/A   Overcast
1:55 AM 32.0 °F 23.6 °F 26.6 °F 80% 29.94 in 10.0 mi West 10.4 mph 18.4 mph N/A   Overcast
2:15 AM 30.2 °F 21.3 °F 24.8 °F 80% 29.95 in 10.0 mi WNW 10.4 mph 16.1 mph N/A   Overcast
2:35 AM 30.2 °F 21.3 °F 23.0 °F 75% 29.96 in 10.0 mi WNW 10.4 mph - N/A   Overcast
2:55 AM 30.2 °F 23.4 °F 24.8 °F 80% 29.96 in 10.0 mi NNW 6.9 mph 17.3 mph N/A   Overcast
3:15 AM 30.2 °F 21.3 °F 23.0 °F 75% 29.98 in 10.0 mi NNW 10.4 mph - N/A   Overcast
3:35 AM 28.4 °F 19.7 °F 23.0 °F 80% 29.99 in 10.0 mi NNW 9.2 mph - N/A   Overcast
3:55 AM 28.4 °F 18.5 °F 21.2 °F 74% 29.97 in 10.0 mi North 11.5 mph 17.3 mph N/A   Overcast
4:15 AM 28.4 °F 21.2 °F 21.2 °F 74% 29.98 in 10.0 mi NNW 6.9 mph - N/A   Overcast
4:35 AM 26.6 °F 17.5 °F 21.2 °F 80% 30.00 in 10.0 mi NNW 9.2 mph - N/A   Overcast
4:55 AM 26.6 °F 17.5 °F 19.4 °F 74% 30.01 in 10.0 mi NW 9.2 mph - N/A   Overcast
5:15 AM 26.6 °F 17.5 °F 19.4 °F 74% 30.02 in 10.0 mi NNW 9.2 mph - N/A   Overcast
5:35 AM 26.6 °F 19.1 °F 17.6 °F 69% 30.02 in 10.0 mi NNW 6.9 mph - N/A   Mostly Cloudy
5:55 AM 24.8 °F 16.9 °F 15.8 °F 69% 30.03 in 10.0 mi NNW 6.9 mph - N/A   Mostly Cloudy
6:15 AM 24.8 °F 20.5 °F 15.8 °F 69% 30.04 in 10.0 mi NW 3.5 mph - N/A   Scattered Clouds
6:35 AM 24.8 °F 20.5 °F 17.6 °F 74% 30.06 in 10.0 mi WNW 3.5 mph - N/A   Mostly Cloudy
6:55 AM 24.8 °F 20.5 °F 17.6 °F 74% 30.07 in 10.0 mi WNW 3.5 mph - N/A   Overcast
7:15 AM 24.8 °F 19.1 °F 15.8 °F 69% 30.07 in 10.0 mi NW 4.6 mph - N/A   Overcast
7:35 AM 24.8 °F 19.1 °F 14.0 °F 64% 30.10 in 10.0 mi NW 4.6 mph - N/A   Overcast
7:55 AM 24.8 °F 19.1 °F 14.0 °F 64% 30.09 in 10.0 mi NW 4.6 mph - N/A   Overcast
8:15 AM 24.8 °F 19.1 °F 14.0 °F 64% 30.09 in 10.0 mi NNW 4.6 mph - N/A   Overcast
8:35 AM 24.8 °F 20.5 °F 14.0 °F 64% 30.10 in 10.0 mi NW 3.5 mph - N/A   Overcast
8:55 AM 24.8 °F 20.5 °F 14.0 °F 64% 30.12 in 10.0 mi NW 3.5 mph - N/A   Mostly Cloudy
9:15 AM 24.8 °F 20.5 °F 14.0 °F 64% 30.12 in 10.0 mi NW 3.5 mph - N/A   Overcast
9:35 AM 24.8 °F 20.5 °F 15.8 °F 69% 30.12 in 10.0 mi NW 3.5 mph - N/A   Overcast
9:55 AM 24.8 °F - 15.8 °F 69% 30.13 in 10.0 mi Calm Calm - N/A   Overcast
10:15 AM 24.8 °F - 17.6 °F 74% 30.13 in 10.0 mi Calm Calm - N/A   Overcast
10:35 AM 24.8 °F 20.5 °F 17.6 °F 74% 30.14 in 10.0 mi NW 3.5 mph - N/A   Overcast
10:55 AM 24.8 °F 19.1 °F 17.6 °F 74% 30.14 in 10.0 mi West 4.6 mph - N/A   Overcast
11:15 AM 24.8 °F 20.5 °F 17.6 °F 74% 30.15 in 10.0 mi WNW 3.5 mph - N/A   Overcast
11:35 AM 24.8 °F 19.1 °F 15.8 °F 69% 30.15 in 10.0 mi WNW 4.6 mph - N/A   Overcast
11:55 AM 24.8 °F 20.5 °F 15.8 °F 69% 30.14 in 10.0 mi NW 3.5 mph - N/A   Overcast
12:15 PM 24.8 °F 20.5 °F 17.6 °F 74% 30.14 in 10.0 mi NW 3.5 mph - N/A   Overcast
12:35 PM 24.8 °F 20.5 °F 15.8 °F 69% 30.14 in 10.0 mi NW 3.5 mph - N/A   Overcast
12:55 PM 24.8 °F 19.1 °F 17.6 °F 74% 30.14 in 10.0 mi NW 4.6 mph - N/A   Overcast
1:15 PM 24.8 °F 20.5 °F 15.8 °F 69% 30.13 in 10.0 mi NW 3.5 mph - N/A   Overcast
1:35 PM 24.8 °F 20.5 °F 15.8 °F 69% 30.13 in 10.0 mi WNW 3.5 mph - N/A   Mostly Cloudy
1:55 PM 24.8 °F 20.5 °F 17.6 °F 74% 30.13 in 10.0 mi NNW 3.5 mph - N/A   Mostly Cloudy
2:15 PM 24.8 °F - 17.6 °F 74% 30.13 in 10.0 mi Calm Calm - N/A   Overcast
2:35 PM 24.8 °F - 17.6 °F 74% 30.13 in 10.0 mi Calm Calm - N/A   Overcast
2:55 PM 24.8 °F - 17.6 °F 74% 30.12 in 7.0 mi Calm Calm - N/A Snow Light Snow
3:15 PM 24.8 °F - 17.6 °F 74% 30.12 in 7.0 mi Calm Calm - N/A Snow Light Snow
3:35 PM 24.8 °F - 17.6 °F 74% 30.12 in 10.0 mi Calm Calm - N/A Snow Light Snow
3:55 PM 24.8 °F - 17.6 °F 74% 30.13 in 7.0 mi Calm Calm - N/A Snow Light Snow
4:15 PM 24.8 °F - 17.6 °F 74% 30.13 in 10.0 mi Calm Calm - N/A   Overcast
4:35 PM 24.8 °F 20.5 °F 17.6 °F 74% 30.13 in 10.0 mi North 3.5 mph - N/A   Overcast
4:55 PM 24.8 °F - 17.6 °F 74% 30.12 in 10.0 mi Calm Calm - N/A   Overcast
5:15 PM 24.8 °F 20.5 °F 17.6 °F 74% 30.12 in 10.0 mi North 3.5 mph - N/A   Overcast
5:35 PM 23.0 °F - 17.6 °F 80% 30.12 in 10.0 mi Calm Calm - N/A   Mostly Cloudy
5:55 PM 23.0 °F - 17.6 °F 80% 30.12 in 10.0 mi Calm Calm - N/A   Mostly Cloudy
6:15 PM 24.8 °F - 17.6 °F 74% 30.12 in 10.0 mi Calm Calm - N/A   Mostly Cloudy
6:35 PM 24.8 °F - 17.6 °F 74% 30.12 in 10.0 mi Calm Calm - N/A   Overcast
6:55 PM 24.8 °F - 17.6 °F 74% 30.13 in 10.0 mi Calm Calm - N/A   Overcast
7:15 PM 24.8 °F - 17.6 °F 74% 30.13 in 7.0 mi Calm Calm - N/A Snow Light Snow
7:35 PM 23.0 °F - 19.4 °F 86% 30.13 in 3.0 mi Calm Calm - N/A Snow Light Snow
7:55 PM 23.0 °F - 19.4 °F 86% 30.12 in 2.0 mi Calm Calm - N/A Snow Light Snow
8:15 PM 23.0 °F - 21.2 °F 93% 30.12 in 1.8 mi Calm Calm - N/A Snow Light Snow
8:35 PM 23.0 °F - 21.2 °F 93% 30.12 in 3.0 mi Calm Calm - N/A Snow Light Snow
8:55 PM 23.0 °F - 21.2 °F 93% 30.12 in 4.0 mi Calm Calm - N/A Snow Light Snow
9:15 PM 23.0 °F - 21.2 °F 93% 30.12 in 4.0 mi Calm Calm - N/A Snow Light Snow
9:35 PM 23.0 °F - 21.2 °F 93% 30.12 in 5.0 mi Calm Calm - N/A Snow Light Snow
9:55 PM 23.0 °F - 21.2 °F 93% 30.10 in 4.0 mi Calm Calm - N/A Snow Light Snow
10:15 PM 23.0 °F - 21.2 °F 93% 30.10 in 3.0 mi Calm Calm - N/A Snow Light Snow
10:35 PM 23.0 °F - 21.2 °F 93% 30.09 in 2.5 mi Calm Calm - N/A Snow Light Snow
10:55 PM 23.0 °F - 23.0 °F 100% 30.09 in 1.8 mi Calm Calm - N/A Snow Light Snow
11:15 PM 23.0 °F - 23.0 °F 100% 30.08 in 2.0 mi Calm Calm - N/A Snow Light Snow
11:35 PM 23.0 °F - 23.0 °F 100% 30.08 in 2.5 mi Calm Calm - N/A Snow Light Snow
11:55 PM 24.8 °F - 23.0 °F 93% 30.08 in 4.0 mi Calm Calm - N/A Snow Light Snow